RYR4KT GMMX-LEAL

Flight info

Callsign RYR4KT
Flight time 1h 27m
Altitude 34000
Route OBOGA DCT ABDOR UM372 FES UG850 BERUM N860 VADAT DCT RESTU
Aircraft B738/M-SDE2E3FGHIRWXY/LB1

Departure

Time 2026-05-08 12:43
Airport Marrakesh Menara Airport (GMMX)

Arrival

Time 2026-05-08 14:11
Airport Alicante-Elche Miguel Hernández Airport (LEAL)
Time Latitude Longitude Altitude Speed Heading
2026-05-08 12:10 31.60336 -8.02497 1565 ft 0 kts 187°
2026-05-08 12:31 31.60339 -8.02496 1565 ft 0 kts 188°
2026-05-08 12:32 31.60344 -8.02496 1565 ft 0 kts 191°
2026-05-08 12:32 31.60347 -8.02495 1565 ft 0 kts 193°
2026-05-08 12:36 31.60350 -8.02494 1565 ft 2 kts 193°
2026-05-08 12:36 31.60360 -8.02491 1564 ft 0 kts 193°
2026-05-08 12:36 31.60374 -8.02489 1564 ft 2 kts 175°
2026-05-08 12:37 31.60389 -8.02492 1563 ft 2 kts 160°
2026-05-08 12:37 31.60402 -8.02501 1563 ft 2 kts 141°
2026-05-08 12:37 31.60413 -8.02513 1563 ft 2 kts 125°
2026-05-08 12:37 31.60420 -8.02529 1563 ft 2 kts 108°
2026-05-08 12:38 31.60422 -8.02539 1563 ft 0 kts 97°
2026-05-08 12:38 31.60423 -8.02547 1562 ft 0 kts 95°
2026-05-08 12:40 31.60422 -8.02544 1562 ft 2 kts 94°
2026-05-08 12:41 31.60420 -8.02495 1563 ft 9 kts 89°
2026-05-08 12:41 31.60413 -8.02415 1562 ft 9 kts 101°
2026-05-08 12:41 31.60402 -8.02337 1562 ft 9 kts 94°
2026-05-08 12:41 31.60398 -8.02262 1562 ft 8 kts 94°
2026-05-08 12:42 31.60401 -8.02196 1563 ft 7 kts 72°
2026-05-08 12:42 31.60438 -8.02168 1562 ft 6 kts
2026-05-08 12:42 31.60490 -8.02163 1561 ft 8 kts
2026-05-08 12:42 31.60560 -8.02222 1560 ft 21 kts 286°
2026-05-08 12:43 31.60606 -8.02657 1553 ft 86 kts 276°
2026-05-08 12:43 31.60687 -8.03583 1544 ft 140 kts 276°
2026-05-08 12:43 31.60771 -8.04872 1755 ft 164 kts 272°
2026-05-08 12:43 31.60861 -8.06249 2192 ft 173 kts 276°
2026-05-08 12:44 31.60956 -8.07609 2776 ft 170 kts 278°
2026-05-08 12:44 31.61196 -8.09039 3011 ft 183 kts 284°
2026-05-08 12:44 31.61442 -8.10508 3369 ft 192 kts 279°
2026-05-08 12:44 31.61541 -8.12171 3614 ft 209 kts 274°
2026-05-08 12:45 31.61616 -8.13938 3876 ft 225 kts 276°
2026-05-08 12:45 31.61763 -8.15806 4234 ft 237 kts 279°
2026-05-08 12:45 31.62318 -8.17654 4609 ft 245 kts 305°
2026-05-08 12:45 31.63550 -8.19056 5241 ft 248 kts 327°
2026-05-08 12:46 31.65093 -8.19950 5870 ft 253 kts 341°
2026-05-08 12:46 31.66855 -8.20249 6500 ft 259 kts
2026-05-08 12:46 31.68575 -8.19610 7146 ft 264 kts 30°
2026-05-08 12:46 31.69994 -8.18264 7765 ft 268 kts 48°
2026-05-08 12:47 31.71000 -8.16390 8363 ft 272 kts 71°
2026-05-08 12:47 31.71408 -8.14229 9005 ft 273 kts 82°
2026-05-08 12:47 31.71641 -8.12023 9625 ft 276 kts 83°
2026-05-08 12:47 31.71872 -8.09789 10267 ft 279 kts 83°
2026-05-08 12:48 31.72137 -8.07504 10923 ft 283 kts 82°
2026-05-08 12:48 31.72422 -8.05218 11568 ft 287 kts 82°
2026-05-08 12:48 31.72726 -8.02886 12212 ft 291 kts 82°
2026-05-08 12:48 31.73034 -8.00532 12851 ft 295 kts 83°
2026-05-08 12:49 31.73349 -7.98124 13472 ft 300 kts 82°
2026-05-08 12:49 31.73836 -7.95736 14066 ft 308 kts 71°
2026-05-08 12:49 31.74893 -7.93492 14497 ft 323 kts 54°
2026-05-08 12:49 31.76367 -7.91412 14829 ft 340 kts 49°
2026-05-08 12:50 31.78007 -7.89293 15189 ft 356 kts 48°
2026-05-08 12:50 31.79693 -7.87086 15535 ft 372 kts 49°
2026-05-08 12:50 31.81400 -7.84724 15865 ft 388 kts 51°
2026-05-08 12:50 31.82973 -7.82052 16151 ft 404 kts 62°
2026-05-08 12:51 31.84090 -7.78960 16605 ft 412 kts 74°
2026-05-08 12:51 31.85367 -7.72355 17726 ft 422 kts 81°
2026-05-08 12:51 31.85876 -7.68928 18297 ft 427 kts 82°
2026-05-08 12:52 31.86371 -7.65447 18863 ft 432 kts 82°
2026-05-08 12:52 31.87386 -7.58420 19963 ft 442 kts 82°
2026-05-08 12:52 31.87933 -7.54854 20485 ft 448 kts 81°
2026-05-08 12:53 31.88605 -7.51264 20975 ft 454 kts 76°
2026-05-08 12:53 31.89635 -7.47687 21471 ft 461 kts 69°
2026-05-08 12:53 31.90952 -7.44209 21946 ft 467 kts 65°
2026-05-08 12:53 31.92428 -7.40781 22408 ft 473 kts 62°
2026-05-08 12:54 31.93993 -7.37350 22860 ft 478 kts 62°
2026-05-08 12:54 31.95604 -7.33892 23300 ft 483 kts 62°
2026-05-08 12:54 31.97232 -7.30406 23720 ft 488 kts 62°
2026-05-08 12:54 31.98882 -7.26848 24155 ft 493 kts 62°
2026-05-08 12:55 32.00519 -7.23285 24593 ft 497 kts 62°
2026-05-08 12:55 32.02150 -7.19698 25056 ft 500 kts 63°
2026-05-08 12:55 32.03788 -7.16068 25486 ft 504 kts 63°
2026-05-08 12:55 32.05442 -7.12375 25932 ft 509 kts 63°
2026-05-08 12:56 32.07088 -7.08683 26378 ft 513 kts 63°
2026-05-08 12:56 32.08746 -7.04952 26954 ft 512 kts 63°
2026-05-08 12:56 32.10394 -7.01233 27558 ft 511 kts 63°
2026-05-08 12:56 32.12037 -6.97519 28030 ft 510 kts 63°
2026-05-08 12:57 32.13673 -6.93816 28728 ft 510 kts 63°
2026-05-08 12:57 32.15322 -6.90079 29318 ft 511 kts 63°
2026-05-08 12:57 32.16965 -6.86353 29907 ft 511 kts 63°
2026-05-08 12:57 32.18614 -6.82610 30424 ft 510 kts 63°
2026-05-08 12:58 32.20253 -6.78888 30893 ft 510 kts 63°
2026-05-08 12:58 32.21869 -6.75213 31346 ft 510 kts 63°
2026-05-08 12:58 32.23524 -6.71448 31799 ft 509 kts 63°
2026-05-08 12:58 32.25152 -6.67742 32276 ft 508 kts 62°
2026-05-08 12:59 32.26759 -6.64078 32762 ft 507 kts 62°
2026-05-08 12:59 32.28384 -6.60372 33246 ft 506 kts 62°
2026-05-08 12:59 32.30004 -6.56671 33735 ft 505 kts 62°
2026-05-08 12:59 32.31610 -6.52999 33992 ft 508 kts 62°
2026-05-08 13:00 32.34861 -6.45556 34015 ft 503 kts 62°
2026-05-08 13:00 32.38041 -6.38259 33966 ft 499 kts 62°
2026-05-08 13:01 32.41527 -6.31123 33952 ft 499 kts 52°
2026-05-08 13:01 32.43834 -6.28059 33961 ft 496 kts 39°
2026-05-08 13:01 32.46514 -6.25406 33970 ft 493 kts 33°
2026-05-08 13:02 32.52050 -6.20707 33967 ft 489 kts 29°
2026-05-08 13:02 32.57714 -6.16173 33994 ft 489 kts 29°
2026-05-08 13:03 32.63378 -6.11594 34005 ft 490 kts 29°
2026-05-08 13:03 32.68999 -6.06958 34001 ft 491 kts 30°
2026-05-08 13:04 32.74573 -6.02302 33983 ft 491 kts 30°
2026-05-08 13:04 32.80182 -5.97592 33979 ft 491 kts 30°
2026-05-08 13:05 32.85755 -5.92904 33993 ft 491 kts 30°
2026-05-08 13:05 32.91372 -5.88171 34010 ft 491 kts 30°
2026-05-08 13:06 32.96939 -5.83474 34020 ft 492 kts 30°
2026-05-08 13:06 33.02540 -5.78741 34027 ft 492 kts 30°
2026-05-08 13:07 33.08125 -5.74015 34031 ft 493 kts 30°
2026-05-08 13:07 33.13746 -5.69250 34007 ft 492 kts 30°
2026-05-08 13:08 33.19364 -5.64479 33989 ft 493 kts 30°
2026-05-08 13:08 33.24970 -5.59711 33971 ft 494 kts 30°
2026-05-08 13:09 33.30582 -5.54931 33930 ft 494 kts 30°
2026-05-08 13:09 33.36165 -5.50168 33888 ft 495 kts 30°
2026-05-08 13:10 33.41777 -5.45373 33856 ft 495 kts 30°
2026-05-08 13:10 33.47409 -5.40551 33832 ft 496 kts 30°
2026-05-08 13:11 33.53021 -5.35735 33814 ft 496 kts 30°
2026-05-08 13:11 33.58664 -5.30882 33797 ft 496 kts 30°
2026-05-08 13:12 33.64301 -5.26026 33785 ft 497 kts 30°
2026-05-08 13:12 33.69944 -5.21157 33776 ft 497 kts 30°
2026-05-08 13:13 33.75571 -5.16294 33769 ft 497 kts 30°
2026-05-08 13:13 33.81198 -5.11422 33830 ft 495 kts 30°
2026-05-08 13:14 33.84013 -5.08980 34016 ft 494 kts 30°
2026-05-08 13:14 33.86792 -5.06569 34208 ft 495 kts 30°
2026-05-08 13:14 33.89608 -5.04127 34403 ft 496 kts 30°
2026-05-08 13:14 33.92418 -5.01687 34501 ft 499 kts 30°
2026-05-08 13:15 33.98029 -4.96704 34307 ft 495 kts 31°
2026-05-08 13:15 34.00739 -4.94231 34196 ft 493 kts 32°
2026-05-08 13:15 34.03496 -4.91696 34045 ft 492 kts 32°
2026-05-08 13:16 34.08973 -4.86657 33913 ft 499 kts 31°
2026-05-08 13:16 34.14543 -4.81539 33822 ft 500 kts 31°
2026-05-08 13:17 34.20063 -4.76466 33848 ft 499 kts 31°
2026-05-08 13:17 34.25602 -4.71375 33899 ft 499 kts 31°
2026-05-08 13:18 34.31141 -4.66283 33915 ft 499 kts 31°
2026-05-08 13:18 34.36668 -4.61192 33922 ft 499 kts 31°
2026-05-08 13:19 34.42213 -4.56070 33934 ft 499 kts 31°
2026-05-08 13:19 34.47713 -4.50949 33952 ft 499 kts 31°
2026-05-08 13:20 34.53253 -4.45768 33970 ft 499 kts 31°
2026-05-08 13:20 34.58768 -4.40602 33995 ft 499 kts 31°
2026-05-08 13:21 34.64289 -4.35425 33986 ft 500 kts 31°
2026-05-08 13:21 34.69805 -4.30244 33808 ft 500 kts 32°
2026-05-08 13:22 34.72593 -4.27623 33659 ft 500 kts 32°
2026-05-08 13:22 34.75355 -4.25025 33464 ft 501 kts 32°
2026-05-08 13:22 34.80819 -4.19873 33389 ft 498 kts 32°
2026-05-08 13:23 34.86366 -4.14645 33184 ft 502 kts 32°
2026-05-08 13:23 34.89129 -4.12034 33024 ft 501 kts 32°
2026-05-08 13:23 34.91898 -4.09413 32986 ft 498 kts 32°
2026-05-08 13:24 34.97360 -4.04239 33079 ft 501 kts 32°
2026-05-08 13:24 35.02887 -3.98997 33363 ft 497 kts 32°
2026-05-08 13:25 35.05619 -3.96399 33619 ft 497 kts 31°
2026-05-08 13:25 35.08340 -3.93814 33809 ft 500 kts 31°
2026-05-08 13:25 35.11098 -3.91193 33933 ft 503 kts 31°
2026-05-08 13:25 35.13862 -3.88565 34016 ft 504 kts 31°
2026-05-08 13:26 35.19417 -3.83267 34011 ft 500 kts 31°
2026-05-08 13:26 35.24943 -3.78088 33942 ft 498 kts 30°
2026-05-08 13:27 35.30498 -3.72966 33936 ft 500 kts 30°
2026-05-08 13:27 35.36076 -3.67824 33944 ft 501 kts 30°
2026-05-08 13:28 35.41646 -3.62666 33944 ft 501 kts 30°
2026-05-08 13:28 35.47230 -3.57476 33945 ft 501 kts 30°
2026-05-08 13:29 35.52819 -3.52265 33947 ft 502 kts 30°
2026-05-08 13:29 35.58387 -3.47061 33949 ft 502 kts 30°
2026-05-08 13:30 35.63905 -3.41892 33951 ft 500 kts 30°
2026-05-08 13:30 35.69466 -3.36677 33953 ft 500 kts 30°
2026-05-08 13:31 35.75030 -3.31449 33954 ft 502 kts 30°
2026-05-08 13:31 35.80606 -3.26202 33954 ft 502 kts 30°
2026-05-08 13:32 35.86185 -3.21003 33946 ft 496 kts 24°
2026-05-08 13:32 35.92111 -3.16776 33957 ft 500 kts 28°
2026-05-08 13:33 35.97546 -3.11300 33957 ft 506 kts 35°
2026-05-08 13:33 36.02867 -3.05525 33958 ft 505 kts 34°
2026-05-08 13:34 36.08207 -2.99916 33958 ft 504 kts 33°
2026-05-08 13:34 36.13644 -2.94430 33978 ft 502 kts 32°
2026-05-08 13:35 36.19143 -2.89018 33980 ft 500 kts 32°
2026-05-08 13:35 36.24588 -2.83745 33957 ft 498 kts 31°
2026-05-08 13:36 36.30102 -2.78488 33959 ft 498 kts 31°
2026-05-08 13:36 36.35645 -2.73212 33967 ft 497 kts 31°
2026-05-08 13:37 36.41122 -2.67982 33967 ft 497 kts 31°
2026-05-08 13:37 36.46610 -2.62773 33967 ft 495 kts 29°
2026-05-08 13:38 36.52369 -2.58126 33967 ft 490 kts 23°
2026-05-08 13:38 36.58307 -2.53860 33967 ft 488 kts 21°
2026-05-08 13:39 36.64214 -2.49693 33967 ft 488 kts 21°
2026-05-08 13:39 36.70101 -2.45491 33968 ft 488 kts 22°
2026-05-08 13:40 36.76022 -2.41208 33968 ft 488 kts 22°
2026-05-08 13:40 36.81878 -2.36936 33975 ft 487 kts 22°
2026-05-08 13:41 36.87761 -2.32623 33997 ft 487 kts 23°
2026-05-08 13:41 36.93626 -2.28315 33960 ft 488 kts 24°
2026-05-08 13:42 36.96542 -2.26171 33784 ft 489 kts 24°
2026-05-08 13:42 36.99503 -2.23991 33503 ft 489 kts 24°
2026-05-08 13:42 37.02394 -2.21856 33368 ft 481 kts 24°
2026-05-08 13:42 37.05282 -2.19718 33492 ft 478 kts 24°
2026-05-08 13:43 37.08165 -2.17588 33619 ft 480 kts 24°
2026-05-08 13:43 37.11081 -2.15434 33724 ft 483 kts 24°
2026-05-08 13:43 37.13995 -2.13284 33864 ft 485 kts 24°
2026-05-08 13:43 37.16893 -2.11142 33945 ft 486 kts 24°
2026-05-08 13:44 37.22683 -2.06849 34032 ft 482 kts 25°
2026-05-08 13:44 37.28523 -2.02510 34008 ft 481 kts 25°
2026-05-08 13:45 37.34274 -1.98230 34027 ft 480 kts 25°
2026-05-08 13:45 37.40057 -1.93921 34042 ft 479 kts 25°
2026-05-08 13:46 37.45817 -1.89620 34046 ft 478 kts 25°
2026-05-08 13:46 37.51563 -1.85322 34040 ft 478 kts 25°
2026-05-08 13:47 37.57288 -1.81033 34044 ft 477 kts 26°
2026-05-08 13:47 37.62973 -1.76767 34037 ft 477 kts 26°
2026-05-08 13:48 37.68651 -1.72494 33793 ft 469 kts 26°
2026-05-08 13:48 37.71431 -1.70395 33523 ft 462 kts 26°
2026-05-08 13:48 37.74195 -1.68306 33183 ft 457 kts 25°
2026-05-08 13:49 37.76938 -1.66233 32734 ft 456 kts 25°
2026-05-08 13:49 37.79648 -1.64188 32258 ft 456 kts 25°
2026-05-08 13:49 37.82379 -1.62126 31718 ft 455 kts 25°
2026-05-08 13:49 37.85112 -1.60061 31198 ft 452 kts 25°
2026-05-08 13:50 37.87800 -1.58020 30701 ft 450 kts 26°
2026-05-08 13:50 37.90382 -1.55852 30202 ft 450 kts 31°
2026-05-08 13:50 37.92876 -1.53400 29717 ft 450 kts 35°
2026-05-08 13:50 37.95225 -1.50847 29231 ft 448 kts 38°
2026-05-08 13:51 37.97524 -1.48211 28740 ft 446 kts 39°
2026-05-08 13:51 37.99804 -1.45536 28249 ft 444 kts 39°
2026-05-08 13:51 38.02064 -1.42862 27743 ft 441 kts 39°
2026-05-08 13:51 38.04301 -1.40212 27245 ft 438 kts 39°
2026-05-08 13:52 38.06520 -1.37588 26758 ft 435 kts 39°
2026-05-08 13:52 38.08697 -1.35020 26279 ft 432 kts 39°
2026-05-08 13:52 38.10921 -1.32402 25792 ft 427 kts 40°
2026-05-08 13:52 38.13100 -1.29842 25314 ft 423 kts 40°
2026-05-08 13:53 38.15247 -1.27322 24832 ft 420 kts 40°
2026-05-08 13:53 38.17415 -1.24779 24333 ft 418 kts 40°
2026-05-08 13:53 38.19555 -1.22273 23795 ft 418 kts 40°
2026-05-08 13:53 38.21700 -1.19762 23282 ft 417 kts 40°
2026-05-08 13:54 38.23811 -1.17289 22785 ft 414 kts 40°
2026-05-08 13:54 38.25946 -1.14784 22259 ft 411 kts 40°
2026-05-08 13:54 38.28024 -1.12344 21805 ft 406 kts 40°
2026-05-08 13:54 38.30081 -1.09926 21381 ft 400 kts 41°
2026-05-08 13:55 38.32117 -1.07530 20959 ft 395 kts 41°
2026-05-08 13:55 38.34147 -1.05140 20525 ft 391 kts 41°
2026-05-08 13:55 38.38128 -1.00448 19646 ft 389 kts 41°
2026-05-08 13:56 38.40101 -0.98121 19163 ft 389 kts 41°
2026-05-08 13:56 38.42092 -0.95773 18679 ft 389 kts 41°
2026-05-08 13:56 38.44079 -0.93429 18182 ft 389 kts 41°
2026-05-08 13:56 38.46072 -0.91073 17696 ft 387 kts 41°
2026-05-08 13:57 38.48017 -0.88768 17339 ft 382 kts 41°
2026-05-08 13:57 38.49952 -0.86470 17012 ft 375 kts 41°
2026-05-08 13:57 38.51847 -0.84219 16684 ft 366 kts 41°
2026-05-08 13:57 38.53699 -0.82020 16366 ft 358 kts 41°
2026-05-08 13:58 38.55671 -0.80175 16000 ft 348 kts 21°
2026-05-08 13:58 38.57964 -0.79471 15457 ft 336 kts 353°
2026-05-08 13:58 38.60151 -0.80104 14742 ft 318 kts 323°
2026-05-08 13:58 38.61756 -0.81897 13973 ft 301 kts 296°
2026-05-08 13:59 38.62667 -0.84249 13315 ft 289 kts 282°
2026-05-08 13:59 38.62835 -0.86647 13138 ft 256 kts 252°
2026-05-08 13:59 38.62018 -0.88494 13107 ft 236 kts 220°
2026-05-08 13:59 38.60501 -0.89324 12870 ft 248 kts 187°
2026-05-08 14:00 38.58801 -0.88867 12347 ft 263 kts 155°
2026-05-08 14:00 38.57452 -0.87199 11718 ft 277 kts 129°
2026-05-08 14:00 38.56406 -0.85127 11052 ft 279 kts 130°
2026-05-08 14:00 38.55154 -0.83298 10439 ft 269 kts 152°
2026-05-08 14:01 38.53482 -0.82576 10126 ft 241 kts 187°
2026-05-08 14:01 38.51982 -0.83230 9953 ft 232 kts 220°
2026-05-08 14:01 38.50988 -0.84880 9684 ft 235 kts 239°
2026-05-08 14:01 38.50135 -0.86657 9351 ft 235 kts 234°
2026-05-08 14:02 38.49126 -0.88293 9045 ft 235 kts 227°
2026-05-08 14:02 38.47972 -0.89785 8745 ft 238 kts 223°
2026-05-08 14:02 38.46694 -0.91166 8449 ft 240 kts 218°
2026-05-08 14:02 38.45326 -0.92393 8147 ft 240 kts 213°
2026-05-08 14:03 38.43906 -0.93502 7847 ft 240 kts 211°
2026-05-08 14:03 38.42427 -0.94545 7546 ft 240 kts 208°
2026-05-08 14:03 38.40944 -0.95494 7263 ft 239 kts 206°
2026-05-08 14:03 38.39435 -0.96329 6958 ft 236 kts 202°
2026-05-08 14:04 38.37889 -0.97024 6667 ft 232 kts 192°
2026-05-08 14:04 38.36307 -0.96956 6401 ft 228 kts 163°
2026-05-08 14:04 38.34913 -0.96004 6132 ft 226 kts 143°
2026-05-08 14:04 38.33868 -0.94551 5933 ft 221 kts 120°
2026-05-08 14:05 38.33371 -0.92746 5726 ft 218 kts 104°
2026-05-08 14:05 38.33080 -0.90829 5372 ft 221 kts 101°
2026-05-08 14:05 38.32813 -0.88909 5067 ft 221 kts 101°
2026-05-08 14:05 38.32545 -0.86995 4764 ft 221 kts 101°
2026-05-08 14:06 38.32280 -0.85068 4457 ft 220 kts 101°
2026-05-08 14:06 38.32018 -0.83165 4150 ft 217 kts 101°
2026-05-08 14:06 38.31761 -0.81297 3852 ft 214 kts 101°
2026-05-08 14:06 38.31507 -0.79453 3564 ft 211 kts 101°
2026-05-08 14:07 38.31251 -0.77630 3281 ft 207 kts 100°
2026-05-08 14:07 38.31006 -0.75837 2993 ft 205 kts 101°
2026-05-08 14:07 38.30762 -0.74064 2731 ft 203 kts 100°
2026-05-08 14:07 38.30519 -0.72305 2471 ft 197 kts 100°
2026-05-08 14:08 38.30292 -0.70662 2242 ft 180 kts 100°
2026-05-08 14:08 38.30085 -0.69171 2007 ft 162 kts 100°
2026-05-08 14:08 38.29895 -0.67808 1750 ft 150 kts 100°
2026-05-08 14:08 38.29713 -0.66511 1579 ft 149 kts 100°
2026-05-08 14:09 38.29532 -0.65203 1377 ft 148 kts 100°
2026-05-08 14:09 38.29353 -0.63921 1178 ft 148 kts 100°
2026-05-08 14:09 38.29174 -0.62630 980 ft 148 kts 100°
2026-05-08 14:09 38.28987 -0.61330 799 ft 147 kts 101°
2026-05-08 14:10 38.28799 -0.60059 601 ft 146 kts 98°
2026-05-08 14:10 38.28635 -0.58794 428 ft 144 kts 99°
2026-05-08 14:10 38.28456 -0.57523 212 ft 146 kts 99°
2026-05-08 14:10 38.28287 -0.56306 112 ft 131 kts 99°
2026-05-08 14:11 38.28148 -0.55321 87 ft 84 kts 98°
2026-05-08 14:11 38.28087 -0.54886 73 ft 38 kts 100°
2026-05-08 14:11 38.28047 -0.54595 60 ft 24 kts 99°
2026-05-08 14:11 38.28075 -0.54478 56 ft 10 kts 25°
2026-05-08 14:12 38.28148 -0.54453 55 ft 9 kts 10°
2026-05-08 14:12 38.28190 -0.54466 55 ft 5 kts 313°
2026-05-08 14:12 38.28207 -0.54510 56 ft 6 kts 285°
2026-05-08 14:12 38.28219 -0.54580 57 ft 9 kts 281°
2026-05-08 14:13 38.28234 -0.54678 59 ft 11 kts 280°
2026-05-08 14:13 38.28250 -0.54788 62 ft 12 kts 279°
2026-05-08 14:13 38.28266 -0.54898 68 ft 12 kts 280°
2026-05-08 14:13 38.28281 -0.55005 74 ft 11 kts 280°
2026-05-08 14:14 38.28295 -0.55101 79 ft 8 kts 279°
2026-05-08 14:14 38.28302 -0.55164 82 ft 5 kts 278°
2026-05-08 14:14 38.28316 -0.55198 83 ft 4 kts 326°
2026-05-08 14:14 38.28363 -0.55196 82 ft 10 kts 37°
2026-05-08 14:15 38.28376 -0.55179 81 ft 0 kts 56°
2026-05-08 14:15 38.28376 -0.55178 81 ft 0 kts 56°
2026-05-08 14:15 38.28379 -0.55174 81 ft 2 kts 48°
2026-05-08 14:15 38.28402 -0.55161 79 ft 4 kts
2026-05-08 14:16 38.28429 -0.55178 80 ft 3 kts 333°
2026-05-08 14:16 38.28440 -0.55183 80 ft 0 kts 343°
2026-05-08 14:16 38.28441 -0.55183 80 ft 0 kts 343°
2026-05-08 14:16 38.28442 -0.55183 80 ft 1 kts 349°
2026-05-08 14:17 38.28466 -0.55185 81 ft 4 kts
2026-05-08 14:17 38.28491 -0.55182 81 ft 2 kts
2026-05-08 14:17 38.28508 -0.55178 81 ft 2 kts 10°
2026-05-08 14:17 38.28519 -0.55176 81 ft 0 kts 10°